Theta_e
327 329 334 335 337 338 339 340 339 339 338 339 339 339 339 339 339 338 337 335 336 338 338 338 338 339 338 337 337 337 337 336 336 336 336 337 337 337 338 338 339 338 337 338 339 340 340 340 341 340 339 339 339 339 338 338 337 334 329 328 328 328 329 332 335 336 337 338 337 336 336 338 339 339 336 332 332 330 328 333 336 339 342 341 341
324 329 333 334 337 338 340 340 339 339 338 339 339 339 339 338 338 336 335 335 336 337 337 338 338 338 338 338 338 338 338 338 337 336 337 337 337 337 337 338 339 339 338 338 339 339 340 340 341 340 340 339 339 339 338 338 337 333 331 330 329 327 327 330 335 336 337 337 336 337 336 338 339 339 337 333 335 332 326 328 330 333 336 338 340
323 329 332 333 337 338 340 340 340 339 337 338 338 339 339 337 337 336 335 336 337 336 336 337 337 338 339 339 339 339 339 339 338 338 338 338 338 338 338 338 339 339 339 339 339 339 340 340 340 339 338 338 337 337 336 336 335 332 332 331 330 328 326 328 334 337 337 337 337 335 335 338 340 339 339 337 337 336 332 332 331 330 330 331 333
325 328 331 334 336 338 339 340 341 339 338 338 339 339 338 337 337 336 336 337 338 337 337 337 338 339 339 339 339 339 339 339 338 338 338 338 338 338 337 337 338 339 339 339 340 339 340 340 339 338 337 337 336 334 334 333 332 331 331 331 330 329 327 326 329 335 337 337 337 335 334 337 340 340 340 339 338 337 336 335 334 332 331 329 329
326 329 331 334 335 337 338 339 340 339 339 340 339 338 338 338 337 337 337 339 339 339 339 339 339 339 339 339 339 339 339 339 338 338 337 337 338 337 337 337 338 339 339 339 339 339 339 338 338 337 336 335 333 332 332 331 330 330 330 329 329 328 327 327 326 331 336 337 337 336 335 336 338 340 341 340 339 338 336 336 335 333 332 332 330
326 329 332 333 335 337 337 339 339 339 339 340 339 339 339 338 338 337 338 339 339 339 339 339 339 339 339 339 339 339 338 338 337 336 335 335 336 336 336 336 337 338 338 338 338 337 337 337 336 336 334 333 332 331 330 329 329 329 328 328 327 327 327 327 327 327 331 335 336 336 335 336 337 338 340 340 340 338 337 337 336 333 331 330 331
326 329 333 333 335 336 337 338 338 338 338 338 338 338 339 338 338 338 338 339 338 339 339 339 339 339 339 339 338 338 337 337 335 335 334 334 334 334 335 335 336 337 337 337 336 336 336 336 336 335 334 332 331 330 329 328 328 328 328 327 327 327 327 327 327 327 327 329 332 333 335 336 337 337 337 339 338 338 337 336 336 333 329 327 329
327 330 332 332 335 335 336 337 337 338 337 338 337 338 338 337 338 338 338 338 338 338 339 339 338 338 337 337 337 336 336 335 334 333 333 333 333 333 333 333 334 334 334 335 335 335 335 334 334 333 331 330 329 328 328 327 327 327 327 327 327 326 327 327 327 327 327 326 326 328 331 333 334 334 335 337 337 337 336 335 334 332 328 326 327
328 330 331 331 333 334 335 336 336 336 336 336 336 337 337 337 337 337 337 337 338 338 337 338 337 337 336 336 335 335 334 333 333 332 331 331 331 332 332 332 332 331 331 332 333 332 331 331 330 328 326 326 325 324 323 323 322 323 322 323 323 323 324 325 326 327 327 326 325 325 326 329 331 330 331 333 335 336 335 334 333 332 331 329 327
328 329 330 330 330 333 335 335 336 335 335 335 335 335 335 336 335 335 336 336 336 336 336 336 335 336 335 334 334 334 333 332 331 330 329 330 330 330 330 330 330 329 329 329 329 328 327 326 324 322 320 318 316 315 314 314 313 313 313 313 313 313 314 316 320 323 325 326 326 325 324 326 328 329 330 331 333 334 335 335 334 333 334 333 331
329 329 329 330 330 332 333 334 334 333 333 334 335 334 334 334 333 333 333 334 334 334 334 334 333 333 333 333 332 332 331 329 328 327 327 328 328 329 328 328 327 327 326 326 325 324 322 320 316 313 311 308 306 306 305 305 305 305 305 304 304 304 305 307 309 313 318 322 325 326 324 325 326 329 332 332 333 335 335 336 336 335 334 334 333
329 329 329 330 329 331 331 332 333 333 332 333 334 333 333 332 331 331 331 332 331 332 332 331 331 330 330 330 330 329 328 327 326 325 325 325 325 325 325 325 325 324 324 322 321 319 316 311 308 305 303 302 301 300 300 300 300 300 300 300 300 300 301 301 303 304 309 314 320 324 325 326 326 329 332 332 333 334 335 335 335 334 334 334 333
329 329 328 329 328 329 328 330 332 331 332 331 332 332 332 331 330 330 330 330 330 330 329 329 329 328 328 328 327 326 326 325 324 324 324 323 321 320 320 321 321 321 320 318 315 311 308 305 303 301 300 299 299 299 299 299 299 299 299 299 299 299 299 299 300 301 303 307 313 320 324 326 327 329 330 331 331 332 332 332 332 333 333 333 332
328 328 327 327 326 327 325 328 329 329 330 330 330 330 331 330 330 329 329 329 329 329 328 328 327 327 327 326 326 325 325 324 323 323 321 317 314 312 312 313 314 314 312 310 306 304 304 303 300 300 299 298 298 298 298 298 298 298 298 299 299 299 299 299 300 300 302 304 309 316 322 325 326 327 328 329 329 330 330 330 330 330 331 331 331
326 326 326 326 324 324 324 325 326 328 329 328 329 329 330 329 329 328 328 328 328 328 327 327 326 327 326 326 325 324 323 322 322 320 315 308 305 304 304 305 305 305 304 302 300 300 302 300 299 298 298 298 298 298 297 298 298 298 298 298 298 298 299 299 300 301 302 303 307 313 319 323 325 326 326 327 328 328 328 328 329 328 329 330 330
325 325 324 324 323 323 323 324 325 327 328 328 328 328 328 328 328 328 327 327 327 327 326 326 326 325 325 325 323 322 321 319 318 313 307 303 302 300 299 299 299 300 299 299 298 298 298 298 298 298 297 297 297 297 297 297 297 297 297 297 297 297 297 298 299 301 303 305 307 312 317 321 323 324 325 325 325 326 326 326 327 327 327 328 328
325 324 324 323 322 321 322 323 324 325 327 327 327 327 327 327 327 327 326 326 326 326 325 325 324 324 324 323 321 319 316 313 310 307 304 303 303 301 300 298 298 298 298 298 298 297 298 297 298 297 297 297 297 297 297 297 297 297 297 297 297 297 297 297 298 299 302 305 309 312 315 319 320 321 323 323 323 324 325 325 325 325 325 325 326
325 324 324 323 320 320 320 322 322 324 326 326 326 327 326 326 326 325 326 325 325 324 324 324 323 323 323 321 319 315 311 308 305 304 304 303 303 302 301 299 298 297 297 298 298 297 297 297 297 297 297 297 297 297 297 297 297 297 297 297 297 297 297 297 297 297 299 302 307 311 314 316 318 319 320 321 321 321 322 322 322 321 321 322 323
324 324 324 323 322 320 319 320 321 322 323 325 325 326 326 325 325 325 325 325 324 324 323 323 322 321 320 317 314 309 307 305 304 304 303 301 300 300 300 299 297 297 297 297 297 297 297 297 297 297 297 297 297 297 297 297 297 297 297 297 297 297 297 297 297 297 297 298 301 306 311 314 315 317 318 319 319 319 319 318 318 318 317 318 318
324 324 324 323 322 320 319 319 320 320 321 324 324 325 325 325 325 325 324 324 323 323 322 321 319 317 314 311 307 305 304 304 303 303 301 299 298 299 299 297 297 297 297 297 297 297 297 297 297 297 297 297 297 297 297 297 297 297 297 297 297 297 297 297 297 296 297 296 297 300 304 309 312 315 316 316 316 315 314 314 313 313 314 313 313
323 323 323 323 322 321 319 318 319 319 319 322 323 324 324 324 324 324 324 323 322 321 321 318 314 311 309 306 303 302 301 300 301 301 299 298 298 298 298 297 297 297 297 296 296 296 297 297 297 297 297 297 297 297 297 297 297 296 296 296 296 296 296 296 296 296 296 296 296 296 299 302 306 312 315 315 314 312 311 311 310 310 312 312 312
322 323 323 322 322 321 320 319 318 318 319 320 322 323 323 323 323 323 322 320 319 318 316 314 310 307 305 303 301 299 298 298 298 298 298 297 297 298 298 297 297 297 297 296 296 296 296 297 297 297 297 297 297 297 296 296 296 296 296 296 296 296 296 296 296 296 296 296 296 296 297 299 302 309 313 315 314 313 313 313 313 314 315 316 315
320 322 322 322 321 321 319 319 318 318 319 320 321 322 323 322 322 321 319 317 316 314 311 308 305 303 302 300 299 297 297 297 297 297 297 297 297 297 297 297 297 297 297 296 296 296 297 297 297 297 297 297 296 296 296 296 296 296 296 295 295 296 296 296 296 296 296 295 295 295 295 297 300 306 312 314 315 314 314 316 317 317 317 318 318
320 321 321 321 320 320 319 318 317 318 319 320 321 322 322 321 320 317 315 313 312 309 306 303 301 300 300 299 297 297 297 297 296 296 296 297 297 297 297 297 297 297 297 297 297 297 297 297 297 297 296 296 296 296 295 295 295 295 295 295 295 295 295 295 295 295 295 295 295 295 295 296 299 303 310 314 314 315 315 316 317 317 317 317 318
318 318 319 320 320 319 318 317 317 317 318 318 319 320 321 320 317 314 312 310 308 306 303 301 299 299 298 297 296 296 296 296 296 296 296 296 296 297 297 297 297 296 296 296 297 297 297 297 297 296 296 295 295 295 295 295 295 294 294 295 295 295 295 295 295 295 295 295 295 295 294 295 297 300 307 312 314 314 315 316 316 316 317 317 317
315 317 318 319 319 319 318 317 316 316 317 317 317 318 319 317 315 312 310 309 306 304 302 299 298 298 297 296 296 296 296 296 296 296 296 296 296 296 296 296 296 296 296 296 297 297 297 296 296 295 295 295 294 294 294 294 294 294 294 294 294 294 294 294 294 294 294 295 294 294 294 294 295 298 304 310 313 314 314 315 316 316 316 316 316
314 315 316 317 317 318 317 316 316 315 316 316 317 317 316 315 313 310 309 308 306 303 301 298 298 297 296 296 296 296 296 296 295 296 296 296 296 296 296 296 296 296 296 296 297 296 296 296 296 295 295 294 294 294 294 294 293 293 294 294 294 294 294 294 294 294 294 294 294 294 294 293 294 296 302 308 312 313 313 314 315 315 315 315 315
312 313 314 315 316 316 317 316 316 315 315 316 316 316 315 314 312 309 307 306 304 302 300 298 297 297 296 296 296 296 296 296 296 296 296 295 295 295 296 296 296 296 296 296 296 296 296 295 295 295 294 294 294 294 293 293 293 293 293 293 293 293 294 294 294 294 293 293 293 293 293 293 294 295 300 307 310 312 312 313 314 314 314 314 314
310 311 312 313 314 315 316 316 315 314 314 315 315 315 314 313 311 308 306 305 303 301 299 298 297 296 296 296 296 296 296 296 296 295 295 295 295 295 295 296 296 296 296 296 296 296 296 295 295 294 294 294 293 293 293 293 293 293 293 293 293 293 293 293 293 293 293 293 293 293 293 293 294 294 298 305 308 310 311 311 312 312 313 313 312
309 310 311 311 313 313 314 315 315 314 313 313 314 314 314 312 309 307 304 303 302 300 299 297 297 296 296 296 296 296 296 296 296 296 295 295 295 295 295 296 296 296 296 296 295 295 295 295 294 294 293 293 293 293 293 293 293 293 293 293 293 293 293 293 293 293 293 293 293 292 293 293 294 295 298 302 306 307 308 309 310 311 311 311 310
308 308 309 310 310 311 312 313 314 313 313 312 313 313 313 311 308 306 304 302 301 300 298 297 296 296 296 296 296 295 295 295 296 296 295 295 295 295 295 295 295 295 295 295 295 294 294 294 293 293 293 293 293 293 293 293 293 293 293 293 293 293 293 293 293 293 292 292 292 292 293 294 295 295 296 299 303 305 305 305 307 309 309 308 309
307 308 309 309 309 309 310 311 312 312 312 312 311 312 312 310 308 306 303 302 301 299 298 297 296 296 296 296 296 296 295 295 295 295 295 295 295 295 295 295 295 295 294 294 294 294 293 293 293 293 293 293 293 293 293 293 293 293 293 293 293 293 293 293 292 292 292 292 292 293 293 294 295 295 294 296 298 299 300 302 305 306 305 305 307
309 309 308 307 308 309 308 309 310 310 311 311 310 311 311 310 308 305 303 302 300 299 297 297 296 296 296 296 296 296 295 295 295 295 295 295 295 295 295 295 294 294 294 293 293 293 293 293 293 293 293 293 294 294 293 294 293 293 293 293 293 293 293 293 292 292 292 292 293 294 294 295 295 294 294 293 294 294 295 297 299 299 300 301 305
309 307 307 308 308 308 307 307 307 308 309 309 309 309 310 309 308 305 303 301 299 298 297 297 296 296 296 296 296 295 295 295 295 295 295 295 295 295 294 294 294 293 293 293 293 293 293 293 293 293 293 294 294 294 294 294 293 293 293 293 293 293 293 292 292 291 292 293 293 294 295 295 295 295 294 293 293 292 292 293 293 293 293 297 302
308 307 308 309 308 307 307 307 306 306 307 308 308 308 308 308 307 305 302 300 299 298 297 296 296 296 296 295 295 295 295 295 295 295 295 295 295 294 294 294 293 293 293 293 293 293 293 293 293 294 294 294 294 294 294 293 293 293 293 293 293 293 292 292 291 291 292 293 294 295 295 294 294 294 294 293 292 291 291 291 290 290 290 293 298
308 308 309 308 307 307 307 306 306 306 306 307 307 307 307 307 306 304 302 300 299 298 297 296 296 296 295 295 295 296 295 295 295 295 295 295 295 294 294 293 293 293 293 293 292 292 293 293 293 293 294 295 294 294 294 293 293 293 293 293 293 292 292 291 291 292 293 294 295 294 294 293 293 292 292 291 291 290 290 290 289 289 289 290 294
308 308 308 307 307 306 306 306 306 306 306 306 305 305 305 305 304 303 302 300 298 298 297 296 296 295 295 295 295 295 295 296 295 295 295 295 294 294 293 293 292 292 292 292 292 292 292 293 293 293 293 294 294 293 293 293 293 293 293 293 293 292 291 291 291 292 293 294 294 293 293 292 291 291 291 291 290 290 289 289 289 289 289 289 290
308 308 308 307 307 306 306 306 306 305 305 305 304 304 303 302 302 301 300 299 298 297 296 296 296 295 295 295 295 296 295 296 295 295 295 295 294 293 293 292 292 292 292 292 292 292 292 292 293 294 293 292 293 293 293 292 292 293 293 292 292 291 291 291 292 293 294 294 293 292 291 290 290 290 290 290 290 289 289 289 288 288 288 288 288
307 307 307 307 307 306 305 305 305 304 304 304 303 302 301 300 299 299 298 298 297 297 296 296 295 295 295 295 296 295 295 296 295 295 295 295 294 293 293 292 291 291 291 291 292 292 292 292 292 293 293 292 292 292 292 292 292 292 293 292 291 290 291 292 292 292 292 291 291 290 290 289 289 289 289 289 289 289 288 288 288 288 288 288 288
307 307 306 306 306 305 305 304 304 303 303 302 302 301 300 299 298 297 297 297 297 296 296 296 295 296 295 295 295 295 295 295 295 295 296 296 295 293 293 292 291 291 291 291 292 292 292 292 292 292 292 292 291 292 292 292 292 292 292 291 291 290 291 291 291 291 289 289 289 289 289 289 289 289 289 289 288 288 288 288 288 288 288 288 288
306 306 306 306 306 306 305 304 303 303 302 301 301 301 300 300 298 298 298 297 297 296 296 295 295 296 295 295 295 295 295 295 295 295 296 296 296 294 292 292 291 291 291 292 292 292 292 292 291 291 292 292 291 291 292 292 292 291 291 290 290 290 291 291 290 289 289 288 288 289 289 289 289 288 288 288 288 288 288 288 288 288 288 288 288
305 306 305 306 306 305 304 304 303 302 301 301 301 301 301 301 300 299 299 298 297 297 296 296 296 296 295 295 295 295 295 295 296 296 296 297 297 295 293 292 291 291 291 291 291 292 291 291 291 291 291 291 291 291 291 292 292 291 290 290 290 290 290 290 290 289 289 289 288 289 289 289 289 288 288 288 288 288 288 288 288 287 287 287 287
306 306 306 305 305 305 304 303 302 302 302 301 301 301 301 301 301 300 299 298 298 298 297 296 296 296 295 295 295 295 295 295 295 296 296 297 297 296 294 292 291 291 290 290 290 291 291 291 291 291 291 290 290 291 291 292 292 292 291 292 293 292 291 290 290 290 289 289 289 289 289 289 289 288 288 288 288 288 287 287 287 287 287 287 287
305 305 305 305 304 304 304 303 303 302 302 301 301 301 301 300 300 300 299 298 297 297 297 296 296 296 295 295 295 295 295 295 295 295 296 297 297 297 295 293 291 291 291 290 291 290 290 291 290 291 291 291 290 290 291 291 292 293 293 292 289 290 294 291 288 290 289 289 289 288 289 289 288 288 288 288 287 287 287 286 287 287 287 287 287
304 305 305 305 305 304 304 303 302 302 301 301 301 300 300 299 299 298 298 297 297 296 296 296 296 295 296 296 295 295 295 295 295 295 296 296 297 297 296 293 292 291 290 290 291 291 291 291 291 291 291 291 291 290 290 290 291 293 293 294 291 293 298 291 287 290 289 288 288 287 288 289 289 288 288 287 287 287 286 286 286 287 287 287 287
304 305 305 305 305 304 304 303 302 302 301 301 300 300 299 299 298 298 297 296 296 296 296 296 296 296 296 296 296 297 296 296 296 296 296 296 296 296 296 294 292 291 290 290 290 290 290 290 291 291 291 291 292 291 290 289 290 291 292 294 294 294 296 290 289 292 289 287 288 288 288 288 288 288 287 287 287 286 286 286 286 286 286 287 286
305 305 305 304 304 304 304 303 302 302 301 300 300 300 299 299 298 298 298 297 296 296 297 297 296 296 296 296 297 297 297 297 296 296 296 296 296 296 295 294 292 291 291 290 290 290 291 290 290 291 290 290 291 291 291 290 290 290 290 291 291 291 291 290 292 293 292 290 287 287 288 288 288 288 287 286 286 286 285 285 285 286 286 286 286
305 305 303 303 304 303 303 303 302 301 301 300 300 300 299 299 298 298 298 298 298 297 297 297 297 296 296 296 296 296 296 297 297 296 296 296 296 295 295 294 292 291 291 290 290 290 290 290 290 290 290 290 290 291 292 291 291 289 289 288 289 289 289 289 290 291 295 296 290 287 288 287 287 287 286 286 285 285 285 285 285 285 286 286 285
305 303 303 303 303 303 303 302 302 301 300 300 300 300 299 299 298 298 298 298 298 298 297 296 296 296 296 296 296 296 296 296 296 296 296 295 295 295 295 293 292 291 291 290 290 290 290 290 290 289 289 289 290 291 291 291 292 291 290 288 287 287 287 287 287 287 290 293 293 292 288 286 288 287 286 286 285 285 284 285 285 285 285 285 285
304 303 302 302 302 302 302 301 301 300 300 300 299 299 299 299 298 298 298 298 297 297 297 296 296 295 295 295 295 295 295 296 296 296 296 295 295 295 294 293 292 291 291 290 290 289 289 289 290 289 289 289 290 290 291 291 292 292 292 290 288 286 285 285 285 285 286 287 290 291 285 284 288 287 285 285 285 285 284 285 285 285 285 285 284
303 302 301 301 302 301 301 300 300 300 299 299 299 299 299 298 298 298 298 298 297 297 296 296 295 295 295 294 294 295 295 295 295 295 295 295 295 294 294 293 292 291 291 290 290 289 289 289 289 289 289 289 290 290 290 290 291 290 291 291 290 290 289 288 287 285 285 285 288 288 283 283 285 284 285 285 284 284 284 284 284 284 284 284 284
Wind_Speed
23 24 22 21 19 18 17 16 16 15 15 14 14 13 12 11 10 10 9 9 9 9 8 8 8 8 8 8 8 7 7 6 6 6 6 6 6 6 5 5 6 6 6 6 6 6 6 6 7 8 8 8 9 9 9 8 7 6 8 9 10 10 9 10 10 11 11 12 11 11 11 11 11 12 13 13 14 13 12 11 10 9 9 9 8
30 27 24 22 20 19 18 18 18 16 16 14 14 13 13 12 11 10 9 9 9 9 9 8 8 8 7 7 7 7 8 8 7 7 7 7 7 6 5 5 6 6 5 6 6 6 7 7 7 8 8 8 9 9 8 6 4 5 7 7 8 9 8 9 9 9 10 9 9 9 10 10 11 12 12 12 13 14 13 13 12 11 11 10 9
30 28 26 23 21 19 18 17 18 18 17 16 15 14 13 12 11 10 10 10 10 9 9 8 8 8 8 8 8 8 8 9 9 9 9 8 8 7 7 6 6 6 6 6 6 7 7 7 7 7 7 7 7 6 6 4 4 5 6 6 6 8 8 7 7 8 8 7 7 7 8 9 10 11 11 11 12 12 12 13 13 12 12 11 10
30 29 26 24 22 20 19 18 17 18 19 18 17 16 15 14 13 12 11 10 10 10 9 9 8 9 9 9 9 9 10 10 10 10 9 9 8 8 8 7 7 7 7 8 7 7 7 7 6 5 5 5 4 3 3 4 5 6 5 5 6 7 7 6 6 6 6 6 6 5 7 8 9 9 9 9 9 10 10 11 12 12 11 11 11
31 27 26 24 23 21 19 18 17 17 17 17 17 17 16 15 15 13 12 11 11 11 10 10 10 10 10 10 10 10 10 10 10 9 9 8 8 8 8 8 8 7 7 8 7 6 6 6 5 3 3 3 3 3 3 4 4 4 4 4 5 5 5 5 4 4 4 4 4 4 5 7 8 8 8 6 7 8 9 11 11 11 11 11 11
31 28 27 25 23 21 19 19 17 17 17 16 16 16 16 15 15 14 14 13 12 12 12 12 12 12 11 11 11 11 10 10 9 8 9 8 8 8 8 8 8 8 8 9 8 6 5 4 3 2 2 2 2 2 3 4 5 4 4 4 4 4 4 3 2 2 2 2 2 3 4 5 6 7 8 6 5 8 9 10 10 10 11 11 10
30 29 26 26 25 23 20 19 18 17 16 16 15 15 15 14 14 15 15 15 14 14 13 13 13 13 12 11 11 10 9 9 9 8 8 7 8 8 8 8 8 8 8 9 8 7 6 5 4 3 1 2 3 4 5 6 6 6 6 6 5 5 4 3 1 1 1 1 1 2 2 3 4 4 7 7 5 6 8 9 9 10 11 10 9
31 30 27 26 25 24 23 20 18 17 17 16 16 15 15 14 15 15 15 15 14 14 13 13 13 12 12 11 10 10 8 8 8 7 7 6 6 7 7 7 7 7 6 7 7 7 7 6 5 4 5 5 6 7 7 7 7 8 8 8 7 7 5 4 3 2 2 1 2 2 2 2 3 2 4 6 6 6 7 8 8 9 10 10 9
31 31 29 27 25 25 24 22 19 17 17 16 16 16 15 14 15 15 14 14 14 13 13 13 13 12 11 11 10 9 8 7 7 7 6 6 6 6 6 6 6 6 5 6 7 6 6 5 5 5 6 6 7 7 8 8 8 8 9 9 9 8 7 6 5 4 4 3 2 2 2 2 2 2 4 6 6 6 7 8 8 8 9 10 9
32 31 30 29 26 26 25 23 20 18 18 17 16 16 16 15 15 15 14 14 14 14 13 13 13 12 11 11 10 9 8 7 8 8 7 7 7 7 7 7 7 7 6 7 6 5 6 5 6 6 6 6 6 6 7 7 7 8 8 8 8 8 8 7 7 6 5 4 3 2 1 1 1 3 5 5 5 6 6 7 7 7 7 8 8
31 31 30 29 27 27 26 25 21 18 18 18 17 16 16 16 15 15 15 15 15 14 14 14 13 12 12 11 10 9 9 9 9 9 9 9 8 8 8 8 8 8 7 7 6 5 5 5 5 5 5 5 5 5 5 6 6 6 7 7 7 7 7 6 6 6 6 5 4 3 1 0 2 5 7 4 3 5 5 6 6 5 6 6 6
31 30 30 29 28 27 26 26 23 20 19 20 21 20 17 16 17 17 16 17 15 15 15 14 14 14 13 12 11 11 11 11 11 10 9 10 10 10 11 11 10 9 8 6 5 5 4 4 4 4 4 4 4 4 5 5 5 5 5 5 5 5 5 5 4 4 5 5 5 4 3 2 3 6 8 6 4 5 4 4 5 5 6 6 5
30 30 29 29 28 27 27 26 24 23 21 20 20 20 19 17 18 17 17 17 16 15 15 15 15 15 14 14 13 13 13 13 12 11 11 11 12 12 11 11 11 10 8 7 6 5 4 4 4 3 3 3 3 3 3 3 2 3 3 3 3 4 3 3 3 3 3 4 5 5 4 3 4 5 7 8 5 4 2 1 2 3 5 5 5
30 30 29 28 27 27 27 27 25 23 20 19 19 19 19 19 18 17 17 17 17 16 15 15 16 15 15 15 15 15 15 14 14 13 13 13 12 12 12 11 11 10 9 8 7 6 5 4 4 3 3 2 2 1 1 1 1 2 2 2 2 2 2 2 2 2 2 3 4 5 5 5 4 4 4 5 2 1 1 1 1 2 3 4 4
29 29 28 27 27 27 26 26 26 23 21 20 20 20 19 19 19 18 17 17 17 16 16 16 16 16 16 16 16 16 15 15 15 14 13 13 12 12 12 11 11 10 9 8 8 8 7 6 5 4 4 3 3 2 3 3 3 3 3 3 3 3 2 2 1 1 2 3 4 5 5 5 4 4 2 2 1 1 1 2 2 2 3 4 4
28 28 28 27 27 27 26 25 25 24 22 21 21 21 20 20 20 20 19 18 18 17 17 17 17 16 16 16 16 16 15 15 15 14 13 12 12 12 12 11 11 10 9 9 9 9 8 7 6 5 5 4 3 3 3 3 4 4 4 5 5 4 4 3 1 1 2 3 4 5 5 6 4 3 2 2 1 1 2 3 4 4 4 5 6
27 27 27 27 27 27 27 26 25 25 23 22 22 22 22 21 21 21 20 19 19 18 18 17 17 16 16 16 15 16 16 15 15 14 13 13 13 13 13 12 12 11 11 10 9 9 8 7 6 5 5 4 3 2 2 2 3 3 4 5 5 5 5 4 3 2 2 3 4 5 6 5 4 2 1 1 1 2 3 4 5 5 5 6 7
27 27 28 28 28 27 27 27 26 26 26 24 23 24 24 22 22 22 21 21 20 19 18 18 17 17 16 16 16 16 16 16 16 15 15 15 15 14 14 13 13 13 12 11 10 9 8 7 6 5 4 3 2 2 2 2 2 2 3 3 4 4 5 5 4 3 2 2 4 5 5 5 3 1 1 2 2 3 4 4 6 6 6 7 8
27 27 28 28 28 27 28 28 27 27 27 26 25 24 24 24 23 23 23 23 22 21 19 19 19 18 17 18 18 18 18 17 17 17 17 17 16 15 15 14 14 13 12 11 10 9 8 7 6 5 4 2 1 1 1 1 2 2 3 3 3 4 4 4 4 3 2 1 2 4 5 5 3 1 2 2 3 4 4 5 6 7 8 8 8
28 28 29 29 28 28 29 29 29 28 28 26 25 25 25 25 24 24 25 24 23 22 21 21 20 19 20 21 20 20 19 19 19 19 18 18 17 17 16 15 15 13 12 11 10 9 8 6 5 4 3 2 1 1 2 2 2 3 3 3 3 4 4 4 3 3 2 1 0 2 4 4 3 2 3 3 4 4 5 6 6 7 7 7 7
30 30 31 30 29 30 30 30 30 30 29 28 27 27 27 26 26 26 27 25 23 23 23 22 22 22 22 22 22 22 22 21 21 20 19 19 18 18 17 16 15 14 13 12 10 9 8 6 5 4 3 3 2 2 3 3 3 3 3 3 3 4 4 4 4 3 2 1 1 1 3 4 4 4 6 5 5 4 3 4 4 4 5 5 5
32 33 33 33 32 32 31 31 31 31 30 29 28 28 28 28 28 27 27 26 24 24 24 24 24 24 24 24 23 23 22 22 21 20 20 20 19 18 18 17 16 14 13 12 11 9 8 7 6 5 5 4 4 3 4 3 3 3 3 3 3 4 4 4 4 4 3 2 1 1 2 3 4 5 7 7 7 6 6 6 6 6 6 7 7
33 37 38 36 35 34 33 33 33 33 32 31 30 30 30 30 29 28 27 27 26 26 26 26 25 25 24 24 23 23 23 22 22 21 21 21 20 19 19 17 16 15 14 13 11 10 9 8 7 6 6 5 5 4 4 4 3 3 3 3 3 3 3 3 3 4 4 3 2 1 1 2 3 4 7 8 8 8 8 8 8 8 8 9 9
39 40 38 38 37 36 35 35 34 34 33 32 32 32 31 31 30 29 28 28 27 27 27 26 26 25 24 24 23 23 23 23 22 22 22 22 21 20 19 18 17 15 14 12 11 10 9 8 8 7 6 6 5 5 5 4 4 3 3 3 3 2 3 3 3 4 4 4 3 2 1 1 2 4 7 9 9 9 9 9 9 9 9 9 10
37 35 36 39 39 39 37 36 36 35 35 34 34 34 33 32 31 30 30 29 29 28 27 26 26 25 25 24 24 24 24 24 24 23 23 22 21 20 19 17 16 15 13 12 12 11 10 9 9 8 7 7 6 6 5 5 4 4 3 3 2 2 2 3 3 4 4 4 4 3 2 1 1 3 6 9 9 9 9 9 9 10 10 10 10
30 33 39 41 41 40 39 38 37 36 36 36 36 35 34 34 33 32 31 30 30 29 28 27 26 26 26 26 26 26 26 26 25 25 24 22 21 20 19 18 17 16 15 14 13 13 11 10 9 8 8 7 7 6 5 5 4 4 3 2 1 1 2 2 3 4 4 5 5 4 3 2 1 3 6 9 10 10 9 9 9 10 10 11 11
32 36 38 39 40 41 41 40 39 38 37 37 36 36 36 36 34 33 32 32 31 30 30 28 27 27 28 28 28 28 28 27 26 25 24 23 22 21 21 19 19 18 17 15 14 13 11 10 9 9 8 7 7 6 6 5 4 4 3 2 1 1 1 2 3 4 4 5 5 4 4 2 1 2 5 8 10 10 10 10 9 10 10 11 11
32 35 35 37 40 42 42 42 41 40 39 39 38 38 38 37 35 35 34 33 32 32 31 29 28 29 30 30 29 29 28 28 27 26 25 24 23 23 22 20 19 18 17 15 13 13 12 10 10 9 8 7 7 6 6 5 4 3 2 2 1 0 1 2 3 4 4 4 4 3 3 2 0 2 6 8 10 11 11 10 9 10 10 11 11
34 36 36 38 40 42 43 44 44 42 41 41 40 40 39 38 37 37 36 34 33 32 31 30 30 31 31 31 30 30 29 29 28 27 26 26 25 24 22 21 20 18 17 16 14 12 12 12 11 10 9 8 7 6 6 5 4 3 2 1 1 1 2 3 3 4 4 4 3 2 1 1 1 3 6 8 10 11 11 11 10 9 10 11 12
38 37 37 39 39 40 43 46 46 44 43 42 42 42 41 41 40 39 38 36 35 33 32 31 31 32 33 32 32 31 30 29 28 27 27 27 26 25 24 22 20 19 17 16 15 13 12 12 11 10 9 8 7 6 5 5 3 3 2 1 0 1 2 3 3 3 3 3 2 1 2 2 3 4 6 8 10 12 12 12 11 9 10 11 13
37 36 40 40 39 40 43 45 45 45 44 44 44 44 43 43 42 40 39 38 36 34 33 33 33 34 34 33 32 31 30 29 28 28 28 28 27 26 24 23 21 19 17 16 15 14 13 12 11 10 9 8 7 6 5 4 3 2 1 0 1 2 3 3 3 3 2 2 1 1 3 4 6 6 6 8 9 11 12 12 12 11 11 12 13
38 42 42 39 40 41 42 44 45 46 46 46 46 46 46 45 44 42 41 39 37 36 35 35 36 36 35 34 33 32 31 30 29 29 29 28 28 26 25 23 21 19 18 17 16 15 14 13 12 11 10 9 7 6 5 3 2 1 0 1 2 3 4 3 3 2 1 1 2 3 5 7 7 7 7 8 8 9 11 12 13 12 12 13 14
43 44 39 38 42 43 42 43 44 46 47 48 48 48 48 46 45 44 42 41 39 37 37 37 37 37 36 35 34 33 32 31 30 30 30 29 28 27 25 24 22 20 19 19 17 16 15 14 13 12 11 9 7 6 4 3 2 1 0 2 3 4 4 4 3 2 1 3 5 7 8 9 8 7 7 7 7 7 8 9 10 10 11 12 14
41 38 37 42 44 43 42 43 44 47 48 49 49 49 49 48 48 46 44 43 41 40 39 39 39 39 38 37 36 35 34 33 32 31 31 30 29 28 26 24 23 22 21 20 19 17 16 15 14 13 11 9 7 5 4 3 2 1 1 2 3 4 5 4 3 1 3 5 8 10 11 10 8 7 7 6 5 5 6 6 6 7 8 10 13
37 36 42 44 43 43 43 44 44 46 48 49 50 50 51 50 49 48 46 45 43 42 41 41 41 40 40 39 38 36 35 34 33 33 32 32 31 29 27 26 24 24 22 21 19 18 17 16 14 13 11 9 7 5 4 3 2 1 1 2 3 4 4 3 1 3 5 8 11 12 11 9 7 7 6 5 4 4 5 5 5 6 6 7 10
39 41 43 41 41 43 44 44 45 46 48 50 51 51 51 50 50 49 48 47 45 45 44 43 42 42 41 40 39 38 37 36 35 34 34 33 32 30 29 27 26 25 24 22 21 20 18 17 15 12 10 9 7 6 5 4 3 1 1 2 3 3 2 1 2 6 8 11 12 11 9 7 6 5 4 3 4 4 5 5 5 5 5 5 7
41 42 41 40 41 42 43 45 46 47 48 49 49 49 49 49 49 48 48 48 47 46 45 44 44 44 43 42 41 39 38 38 37 36 36 35 33 31 30 29 28 26 25 23 22 21 19 18 16 14 11 9 8 7 6 4 3 1 1 2 2 2 0 3 5 8 11 12 10 8 7 6 5 4 3 3 4 4 4 4 4 5 4 3 5
39 40 40 41 42 42 43 45 46 46 46 47 47 47 46 45 45 46 46 46 46 46 46 46 46 45 44 43 42 41 40 39 39 38 37 35 33 32 31 30 29 28 26 25 24 22 20 18 16 15 13 10 9 8 6 5 3 1 1 2 1 1 2 5 8 10 11 9 8 6 6 6 5 5 4 4 4 3 3 3 4 4 2 2 3
37 37 39 40 40 40 41 43 44 44 44 44 44 43 42 41 41 41 41 42 44 44 45 46 46 46 45 45 44 43 42 41 40 40 38 36 34 33 32 31 31 29 28 27 25 24 22 20 17 16 15 13 11 9 7 6 4 2 1 1 2 3 5 7 9 10 8 7 7 6 6 6 5 4 4 4 3 3 3 4 4 3 3 3 3
36 36 37 38 39 39 40 42 43 43 42 41 40 39 38 38 37 37 39 42 43 44 45 47 47 47 47 46 46 45 44 43 42 41 39 37 36 34 34 33 32 31 30 29 28 26 24 22 20 17 16 15 12 10 8 7 6 5 4 3 4 5 7 9 11 11 10 9 8 8 8 6 4 4 4 4 3 3 4 4 4 4 3 3 3
32 34 35 38 40 41 41 42 43 42 42 41 42 42 41 40 38 40 44 44 44 44 46 48 49 49 49 48 48 46 46 45 43 42 40 39 37 36 35 34 34 33 32 30 29 26 25 23 21 19 17 15 14 12 9 8 8 7 6 6 6 7 9 10 12 13 13 11 9 8 7 6 5 5 5 3 2 3 4 5 5 4 3 3 4
31 33 36 38 40 40 41 41 40 41 43 44 44 45 46 46 45 46 48 46 46 48 49 51 51 50 49 49 48 47 46 46 44 43 41 40 39 37 37 36 36 35 33 31 29 27 26 25 23 21 19 17 14 12 12 9 7 8 7 6 6 5 9 11 10 9 8 6 5 5 3 5 5 6 5 4 3 4 4 5 5 3 3 2 4
29 32 35 37 37 39 41 40 39 41 44 45 45 46 47 46 43 42 41 40 42 46 46 47 49 49 48 47 47 47 46 46 45 44 43 42 40 39 38 38 37 36 35 33 31 29 28 27 26 24 21 18 15 13 13 11 9 9 8 4 2 3 4 8 9 8 5 3 3 4 4 1 2 1 3 5 4 5 5 6 4 2 2 2 4
27 29 33 35 36 39 41 40 40 43 44 45 46 44 41 40 37 33 33 33 34 37 38 39 43 44 45 46 46 47 46 46 46 45 44 43 41 41 40 39 39 38 37 36 34 33 32 30 29 26 24 20 17 14 14 12 12 10 6 3 2 2 1 5 6 10 10 7 7 8 8 5 3 4 3 5 4 5 6 6 3 1 2 2 4
26 30 32 35 36 38 39 40 40 41 42 43 43 40 36 35 33 28 26 28 27 29 33 35 38 40 44 47 48 47 47 47 47 46 44 44 43 42 41 41 40 40 39 38 36 35 34 33 31 29 26 23 20 16 15 14 14 12 8 5 3 1 3 3 2 5 8 7 8 10 10 6 6 8 6 5 4 5 8 5 2 1 1 4 6
27 30 32 34 35 36 37 38 39 39 40 41 40 39 37 37 36 32 29 29 27 31 38 39 39 43 46 47 48 48 48 48 47 46 45 45 45 44 43 42 42 41 40 39 38 37 36 34 32 30 28 25 21 18 17 17 14 13 13 10 6 5 4 5 3 2 4 6 9 12 10 8 9 9 6 7 6 5 8 6 2 1 2 5 6
27 28 29 31 33 33 35 37 38 39 39 39 40 40 40 39 41 40 37 35 34 36 41 41 42 45 44 44 46 46 47 47 47 47 46 46 46 45 44 43 42 42 41 41 40 38 37 35 33 31 29 26 24 21 20 20 16 13 13 12 10 9 8 7 5 2 1 4 8 11 11 11 10 9 7 8 6 5 8 6 2 0 4 6 5
24 23 25 28 30 32 33 35 37 38 38 39 41 43 43 42 42 41 38 39 39 37 37 38 40 42 41 41 43 44 45 46 46 47 47 47 46 46 45 44 44 43 43 42 41 40 38 35 33 32 30 28 26 23 23 23 20 16 15 14 11 12 12 10 8 5 3 1 4 7 10 12 12 10 7 7 5 6 8 5 1 2 5 5 5
20 20 22 24 26 29 31 33 36 37 38 40 42 45 45 44 43 41 39 40 39 34 33 34 36 38 39 40 41 42 43 44 46 47 47 47 47 47 46 46 45 45 44 44 42 40 39 37 35 34 33 31 28 25 24 24 23 21 19 17 14 13 12 11 11 8 5 4 3 3 6 9 9 8 7 4 4 7 7 2 2 4 5 5 6
16 17 18 19 21 24 27 31 34 36 37 40 42 44 45 43 43 43 41 39 35 31 29 31 34 35 37 38 40 42 43 45 46 47 47 48 48 48 48 48 47 46 46 45 43 42 41 39 37 36 35 32 30 27 25 24 24 23 22 21 19 16 11 8 10 11 6 4 3 3 5 6 5 6 6 5 3 7 4 1 3 5 6 6 6
12 13 14 16 18 21 24 28 31 33 35 38 41 43 44 43 44 44 43 39 35 32 30 31 34 34 35 37 39 40 42 44 46 46 48 48 48 49 49 48 48 47 47 46 45 44 43 41 38 37 36 34 32 30 27 25 25 25 24 24 24 22 16 12 15 19 12 6 4 3 7 9 8 9 7 5 5 6 2 3 4 6 7 6 5
Wind_Direction
184 177 175 173 173 169 173 176 179 179 175 176 173 177 176 174 173 170 166 160 157 157 156 153 152 150 151 143 141 142 140 138 138 139 136 130 122 122 119 116 112 111 115 111 113 114 110 105 99 94 87 85 84 80 78 78 80 74 74 77 78 74 66 65 69 67 73 83 82 76 74 70 65 62 58 56 51 46 46 46 45 39 40 43 42
180 175 175 174 174 169 172 174 176 178 177 179 178 180 178 180 180 177 172 164 161 158 156 154 154 153 151 144 144 142 138 138 135 134 132 130 128 130 129 123 115 110 113 115 119 120 114 109 107 106 101 97 96 94 95 94 86 72 69 70 75 78 72 67 72 74 78 84 79 74 77 75 73 70 61 55 51 47 48 48 47 41 37 37 36
172 172 175 176 174 168 172 172 174 175 176 179 179 181 180 183 182 181 178 170 165 161 160 157 158 154 152 150 151 147 143 141 135 133 128 129 132 133 132 127 121 119 125 126 124 124 117 114 118 115 107 103 104 100 94 87 68 57 56 53 59 71 72 66 70 78 80 81 76 71 77 76 72 72 61 50 50 51 50 46 46 45 41 38 34
170 170 174 176 174 170 171 170 173 174 175 178 178 181 182 183 180 180 176 172 168 164 162 159 160 158 159 159 155 150 147 141 136 134 131 132 130 128 128 126 126 124 128 128 121 121 121 124 126 118 111 104 105 93 69 57 49 43 43 41 42 53 61 61 60 72 77 77 75 67 70 74 72 70 61 47 45 49 48 42 41 42 42 40 37
172 170 174 176 174 172 171 168 172 174 174 175 176 180 180 180 177 176 172 171 168 163 162 160 162 163 162 158 152 148 144 139 138 135 133 132 123 121 125 127 126 121 123 126 122 124 129 138 142 143 131 101 82 68 44 29 23 19 22 26 28 33 45 56 56 62 69 69 67 58 60 66 69 67 58 43 36 36 38 37 37 38 37 36 35
174 171 175 176 173 172 172 169 172 175 175 175 175 176 176 176 172 170 170 170 169 164 161 162 162 160 157 152 149 148 145 140 139 135 137 139 134 132 133 131 124 123 123 119 120 132 148 156 157 161 131 93 59 23 347 338 336 340 345 346 351 356 12 37 56 61 58 61 51 48 54 60 64 63 52 42 35 30 28 29 31 32 30 28 28
177 173 176 178 175 173 174 172 174 178 176 176 175 174 174 173 170 168 170 171 170 166 162 161 160 158 154 151 152 153 148 144 144 141 144 145 144 145 143 135 127 129 124 121 132 151 174 182 177 191 218 273 285 295 297 302 306 311 312 310 313 313 323 336 1 49 33 13 344 28 42 54 56 55 49 38 25 22 19 21 26 22 22 23 23
179 177 178 180 179 178 178 176 179 180 177 180 177 177 177 175 172 170 172 173 170 167 166 163 162 162 159 161 166 168 160 154 157 160 159 151 145 145 145 137 130 128 125 153 179 189 197 197 198 230 261 274 280 283 284 287 289 292 294 293 294 293 295 291 283 272 277 311 317 352 9 33 41 40 40 26 13 10 8 10 18 14 17 19 18
182 181 181 184 185 184 183 181 187 187 183 187 185 181 180 179 178 177 177 176 173 169 170 171 172 169 170 178 180 178 171 169 178 186 178 162 154 148 144 134 137 144 150 193 210 218 225 226 236 253 264 267 270 273 276 278 279 280 281 282 283 284 284 279 272 265 264 273 293 318 336 1 17 29 31 24 13 4 4 5 12 18 20 18 15
184 185 185 186 189 189 187 185 190 195 191 190 194 191 186 186 186 188 186 188 186 179 179 182 182 177 182 189 184 179 178 183 191 193 180 167 163 151 146 143 159 184 198 215 224 235 245 252 256 259 260 259 260 262 266 270 273 275 276 278 279 279 277 275 269 262 260 258 265 282 314 1 20 33 29 28 14 357 3 8 11 19 22 20 17
184 187 187 188 191 192 192 191 187 190 191 189 197 198 194 193 194 197 194 199 197 191 193 192 193 191 193 193 186 184 191 197 194 189 178 168 164 162 171 180 190 202 207 214 222 234 244 247 247 249 250 251 252 255 260 264 269 273 277 279 280 280 278 274 268 259 253 246 243 242 243 63 90 51 34 27 13 3 13 22 17 18 21 20 21
186 188 189 189 192 193 195 195 190 187 191 195 198 196 200 203 202 203 199 201 201 198 200 198 199 201 199 197 196 193 195 193 186 184 175 170 178 190 198 202 204 204 204 203 207 216 222 226 228 229 234 237 243 250 257 263 269 273 277 278 278 280 279 276 269 257 244 235 229 219 201 158 108 71 50 43 36 31 30 32 24 15 16 17 22
187 190 191 192 193 196 197 197 195 193 196 201 201 196 201 206 205 204 200 200 200 199 198 198 198 197 196 195 195 188 183 179 177 175 173 181 196 203 203 204 204 203 202 198 194 194 197 205 206 208 209 212 222 237 259 276 288 290 289 286 285 283 282 278 268 248 229 217 210 202 190 165 113 89 65 53 49 48 28 1 21 0 355 6 17
188 192 193 196 196 199 199 199 199 198 199 200 199 199 200 202 203 202 200 198 198 198 194 195 194 190 188 186 184 178 176 174 173 172 178 193 199 200 199 200 202 201 200 194 188 182 178 181 182 175 162 156 154 152 124 45 27 15 9 358 342 323 309 295 272 241 212 199 193 186 181 169 114 93 81 57 41 33 7 314 351 340 320 337 355
192 193 194 198 199 201 201 199 199 195 197 197 195 198 199 198 200 199 197 196 194 194 190 190 188 185 184 182 180 177 176 175 174 178 188 197 194 194 194 195 195 194 192 186 181 174 168 164 160 147 133 118 109 93 83 68 55 49 41 40 34 27 11 349 301 232 198 186 182 178 176 172 129 88 78 63 352 279 309 274 287 320 305 298 311
197 196 196 199 200 202 201 199 198 195 194 195 194 195 198 196 196 196 195 194 192 191 190 189 186 184 183 182 181 180 180 180 183 189 194 191 186 186 185 186 185 183 180 173 169 165 161 157 153 146 138 131 119 94 72 56 41 37 32 35 34 35 36 34 41 160 183 180 176 175 173 169 145 98 56 50 13 289 282 277 276 291 287 278 289
200 200 200 200 200 201 200 200 198 195 193 193 194 195 196 195 194 195 195 194 193 192 191 189 187 185 185 183 182 184 187 189 191 192 189 182 178 175 174 175 172 170 168 165 163 159 158 154 150 146 141 135 123 102 80 61 43 33 23 20 18 20 21 26 35 67 149 180 179 176 174 166 149 116 45 11 332 299 284 292 292 293 290 280 287
201 203 203 203 201 201 201 202 201 196 194 193 195 195 194 195 194 194 195 194 194 193 191 190 188 186 185 184 186 190 192 193 192 188 183 179 177 173 170 169 166 166 166 165 164 160 158 154 150 145 139 130 118 94 69 51 34 21 12 7 3 3 3 7 10 27 66 163 181 183 178 165 145 122 16 346 313 302 296 302 307 308 309 303 296
204 206 206 207 205 204 203 203 204 200 198 195 196 196 194 195 194 194 195 195 195 193 191 190 190 187 188 191 193 195 193 191 188 184 182 181 178 173 170 168 167 168 167 165 163 161 157 153 149 145 142 139 129 101 2 337 338 335 335 337 339 342 345 345 350 5 20 65 171 182 178 168 146 81 356 335 312 303 303 304 308 310 309 310 306
207 210 209 211 209 208 206 206 207 205 203 197 197 197 196 196 194 195 196 195 194 192 192 193 194 194 196 199 199 196 192 189 186 184 184 183 178 173 171 169 170 170 168 166 164 162 157 153 152 152 155 162 188 229 261 276 283 290 295 301 308 313 318 322 330 342 346 17 123 173 164 165 150 53 16 352 324 304 300 299 300 306 308 312 314
210 212 212 213 212 211 210 210 210 209 206 199 198 199 198 197 195 196 197 196 194 194 195 198 201 200 202 202 200 197 194 192 188 187 185 181 178 174 172 171 172 171 170 168 166 164 161 162 163 167 178 190 208 229 243 250 255 259 264 271 279 287 294 303 309 319 327 337 313 164 142 145 136 62 31 23 9 347 340 340 329 332 337 342 345
211 212 214 214 214 215 213 213 212 211 208 202 200 201 201 199 198 199 199 200 198 198 200 203 204 204 205 203 200 199 197 195 191 189 186 182 179 175 173 174 175 174 172 171 169 169 169 171 176 181 188 195 206 216 228 235 238 240 243 253 261 272 277 284 292 299 308 311 304 238 147 130 120 73 39 32 31 29 33 37 35 35 35 38 37
213 213 215 215 215 216 216 216 214 212 209 206 203 204 205 203 202 203 203 204 203 204 205 206 208 208 206 203 201 200 198 196 192 190 187 183 181 179 178 178 179 178 176 176 175 175 175 178 180 183 185 186 193 199 209 217 222 227 227 236 246 255 268 276 284 288 294 297 293 273 185 141 123 85 45 35 37 38 43 45 45 48 49 52 51
215 215 216 215 216 217 217 217 216 214 212 209 207 207 208 207 206 207 207 207 207 208 209 209 210 210 207 204 202 200 198 195 192 191 189 186 184 184 184 183 184 182 181 181 178 177 178 179 178 176 178 176 178 183 186 194 201 208 213 220 231 240 256 269 279 284 288 290 287 281 237 174 133 100 53 39 40 40 47 49 50 55 56 57 57
215 217 218 217 217 217 218 217 216 215 214 213 210 210 210 209 209 209 209 209 209 210 211 212 212 211 207 205 202 199 197 195 193 192 191 191 189 188 187 186 185 183 181 181 178 178 177 175 173 170 169 168 168 171 172 176 182 187 196 202 213 230 251 264 274 281 284 287 286 285 269 228 148 110 64 43 41 42 47 48 51 56 57 59 60
217 218 219 219 219 218 218 217 216 216 217 216 214 213 212 212 211 211 210 210 211 212 213 213 212 210 207 205 203 199 198 196 195 194 194 194 192 190 188 186 185 183 181 182 180 176 174 169 166 165 163 164 163 164 163 164 166 169 175 176 194 225 257 273 276 281 283 287 286 287 283 265 210 124 81 51 43 44 46 47 49 54 55 56 58
218 220 221 220 219 218 218 217 218 218 218 218 216 215 214 214 214 213 212 211 212 213 214 214 212 209 207 207 205 201 200 198 197 196 196 194 193 192 189 188 187 186 184 183 181 173 169 166 162 163 161 161 160 158 156 154 152 151 154 154 169 225 270 284 288 291 289 291 290 292 293 284 257 139 98 60 47 46 46 48 50 50 52 52 53
221 222 222 221 221 220 219 218 219 219 219 218 217 217 216 216 216 215 215 214 214 215 216 214 211 209 209 209 207 205 203 201 200 198 198 195 194 194 191 191 190 190 186 182 181 173 168 165 163 164 162 160 157 154 149 144 141 137 134 136 140 255 293 296 295 297 297 298 296 299 310 319 324 143 110 69 51 49 47 48 49 47 47 46 46
225 224 223 223 223 221 220 220 220 220 220 219 218 218 218 217 217 217 217 216 217 218 218 216 212 210 210 210 209 207 206 204 203 201 199 197 196 196 194 194 192 192 188 182 180 176 169 167 167 166 162 160 156 154 148 142 137 129 128 128 118 283 297 299 296 296 296 302 304 316 346 33 77 130 121 85 58 51 50 48 45 43 42 41 41
227 225 224 225 224 222 222 221 221 221 220 219 219 219 219 218 218 219 219 218 219 219 218 217 214 212 211 211 211 210 210 208 206 204 202 200 199 198 197 196 195 192 190 184 179 178 174 170 168 166 163 161 159 155 148 143 138 127 124 121 283 297 303 296 288 284 286 294 302 348 71 96 102 117 124 106 77 56 51 49 44 42 40 38 38
227 225 226 226 224 223 224 223 221 221 220 220 220 220 220 220 220 220 220 220 220 219 218 217 216 215 214 213 213 213 213 211 210 208 205 204 202 200 199 198 196 192 189 186 180 178 176 171 167 166 164 163 163 156 150 149 141 131 117 4 319 317 310 301 290 281 276 272 260 113 115 117 116 112 110 112 94 65 54 49 46 45 41 38 37
225 227 227 225 225 225 224 223 222 220 220 221 220 221 221 221 221 221 222 222 221 220 218 218 217 216 216 215 215 214 214 214 213 212 209 208 205 203 202 200 198 193 189 187 183 179 177 174 169 168 169 169 171 162 157 158 146 134 109 324 319 315 307 301 293 280 263 187 142 135 134 131 125 115 105 104 96 76 63 54 48 43 39 37 35
226 228 226 225 227 226 224 224 222 220 220 221 221 221 222 222 222 222 222 222 221 221 219 218 218 217 217 216 216 216 215 216 215 215 214 212 210 207 205 202 199 195 191 188 187 184 180 179 175 174 176 175 176 168 166 171 161 169 295 311 313 311 308 300 286 268 189 146 141 140 138 134 127 119 110 101 91 81 69 60 53 43 41 40 34
228 225 224 227 227 225 224 223 221 221 220 220 220 220 222 222 222 222 223 223 222 221 220 220 219 218 218 217 217 217 217 217 217 217 216 214 213 211 208 204 199 196 194 191 190 188 184 185 184 182 181 180 181 178 176 180 172 192 279 302 307 307 305 296 280 225 158 145 142 142 137 130 124 118 113 104 88 74 63 57 52 43 47 47 38
228 224 227 228 226 224 223 222 220 220 220 219 220 220 221 221 222 222 222 222 222 221 220 220 220 219 219 218 218 218 219 219 218 219 218 217 215 213 210 206 201 199 197 194 192 191 189 190 191 190 188 186 187 185 180 179 177 193 256 292 305 304 300 291 250 153 144 142 142 139 130 122 117 116 112 97 72 66 59 49 45 39 48 57 47
229 228 229 227 225 224 222 221 220 220 219 219 220 219 220 220 221 221 221 222 221 221 220 220 220 220 219 219 219 219 220 220 220 220 220 219 218 215 212 207 204 202 199 197 194 194 194 193 193 194 197 194 189 188 182 176 174 182 262 299 305 302 294 271 148 142 141 142 137 128 120 113 106 108 101 77 63 64 54 42 39 32 41 63 56
233 230 228 225 224 223 221 220 220 220 219 218 218 217 217 218 219 220 221 221 221 220 220 220 220 220 219 219 219 220 221 221 221 222 222 221 219 216 212 208 206 204 201 199 196 197 197 198 197 195 197 197 192 187 179 170 169 176 291 311 309 311 329 136 139 140 140 139 130 114 104 96 85 85 84 78 74 64 47 39 29 15 21 58 56
236 232 228 226 225 223 220 220 221 220 218 217 216 215 215 216 218 219 220 220 220 220 219 219 219 219 220 220 220 221 222 222 222 223 223 222 220 217 213 209 208 205 203 201 199 198 198 200 202 198 194 193 192 186 177 168 156 136 7 333 332 56 113 132 137 140 141 139 129 111 94 87 84 92 95 89 80 57 37 25 10 3 20 56 48
237 234 230 227 225 223 221 221 220 218 217 215 213 212 212 214 215 216 218 219 219 218 218 219 219 220 221 221 221 221 222 223 223 223 222 221 219 217 214 211 209 207 204 203 201 199 198 198 201 202 195 190 192 186 176 167 146 121 89 71 74 99 128 134 134 137 139 137 131 120 104 95 91 94 93 83 67 37 18 7 3 22 57 60 38
237 234 230 225 223 221 220 219 217 215 213 210 208 206 206 209 210 212 214 217 218 217 218 219 220 221 222 222 222 222 222 223 223 222 221 221 219 218 215 213 211 209 207 206 204 203 201 199 200 202 199 192 188 185 179 166 144 118 100 104 101 117 137 138 133 125 116 118 123 124 110 85 74 88 80 67 43 13 11 14 27 57 65 59 41
234 231 227 224 222 220 218 217 215 212 209 205 203 202 202 202 203 208 212 214 214 215 217 218 220 221 222 222 221 221 222 222 222 221 220 220 219 218 216 213 213 211 211 211 209 206 203 202 201 198 200 195 187 185 180 167 149 130 111 101 102 130 150 144 134 122 111 111 117 127 111 68 80 104 76 61 38 17 30 39 47 57 49 50 49
230 227 225 224 222 219 218 217 213 209 208 206 203 203 204 203 204 208 211 211 211 212 215 217 218 220 221 220 220 220 221 221 221 221 220 219 218 218 216 215 214 213 213 212 210 207 204 203 201 197 196 193 190 187 181 173 163 154 143 112 89 123 165 166 156 139 119 116 125 142 123 61 96 113 65 54 51 46 55 46 41 38 32 47 48
231 228 226 224 220 218 218 216 212 209 209 207 206 206 207 207 207 209 210 209 212 213 214 216 217 218 219 219 220 220 220 221 221 221 220 219 219 219 218 216 216 214 213 211 209 207 205 204 203 202 196 190 190 188 184 183 173 155 137 125 109 104 178 205 211 224 247 239 210 208 222 8 91 138 38 44 53 57 50 29 28 59 66 59 59
232 229 225 222 219 219 217 214 213 212 210 208 208 208 207 206 208 211 211 210 213 215 214 217 217 217 218 219 220 220 220 221 221 221 220 220 220 220 219 217 216 216 214 213 210 207 207 206 204 203 199 192 187 185 187 187 181 171 134 99 109 99 221 237 228 242 261 261 240 227 222 235 294 278 314 14 28 40 28 17 30 100 109 91 92
232 231 227 223 220 220 218 215 214 212 210 209 207 205 203 201 202 205 207 207 211 211 211 215 215 215 217 218 219 219 220 220 221 221 221 221 221 221 221 219 217 217 216 215 214 211 210 208 206 204 203 201 194 186 186 186 188 193 180 144 116 136 226 216 182 242 248 236 220 210 210 232 287 279 281 327 339 8 13 19 53 69 125 124 114
239 238 233 228 224 222 219 215 213 212 211 208 205 201 200 198 196 195 194 196 201 205 209 211 210 213 216 217 218 218 219 219 219 220 221 221 222 221 221 219 218 217 217 217 216 214 212 210 209 207 206 207 203 192 185 186 189 194 195 195 198 199 183 155 140 243 243 225 209 208 220 247 273 268 276 312 308 332 3 14 15 321 150 138 124
252 247 238 232 227 223 220 216 213 212 210 207 203 200 199 199 198 199 198 197 201 208 211 211 211 213 215 216 217 217 217 217 218 219 220 221 221 221 221 220 219 219 219 218 217 216 215 213 212 210 209 209 208 201 191 188 187 188 195 200 199 193 178 166 169 176 239 244 219 216 229 243 255 262 281 305 300 316 351 1 350 131 152 144 128
268 257 243 236 230 224 220 216 213 212 209 206 203 201 201 201 201 203 204 206 208 211 212 210 212 213 212 214 216 216 216 217 218 218 219 220 220 220 220 220 220 219 219 219 219 218 217 215 212 211 211 210 211 209 200 193 190 188 187 188 189 188 186 186 189 177 148 205 235 225 225 236 251 264 284 298 299 316 340 357 23 143 154 154 139
280 264 250 244 235 227 221 216 213 211 208 205 203 203 203 203 203 204 207 211 213 213 212 210 210 210 210 211 213 214 215 216 217 219 219 219 220 220 220 220 219 219 220 220 220 219 218 216 213 212 211 211 211 212 210 204 200 197 190 185 181 178 183 189 191 186 161 167 229 243 232 244 255 261 266 278 323 333 338 17 124 150 158 162 153
288 273 256 246 237 229 222 217 213 210 208 206 204 204 204 204 205 206 208 211 210 210 210 208 208 208 207 208 210 212 213 214 215 217 218 219 220 220 220 220 220 220 220 220 220 220 219 217 216 215 213 211 210 211 213 211 208 206 201 194 183 172 173 179 188 189 175 180 205 225 235 240 256 268 263 251 317 344 342 125 139 162 166 164 164
294 277 256 241 234 228 223 220 216 212 209 207 205 205 205 205 207 208 210 210 207 204 204 203 204 205 205 207 208 210 211 213 213 215 217 219 219 219 220 220 220 220 220 220 220 220 219 218 217 216 214 213 212 211 210 211 211 208 206 204 200 195 195 198 198 192 183 183 175 190 230 233 253 267 266 260 294 337 322 172 149 159 162 167 182